Location: Unspecified
(47.6578°N, 23.5640°E)
Time: 22:06:00
(UTC+02:00)

ISS - Pass Details

Date: 04 December 2017
Orbit: 402 x 407 km, 51.6° (Epoch: 13 December)

Event Time Altitude Azimuth Distance (km) Brightness Sun altitude
Rises 18:50:55 0° 274° (W) 2,329 1.4 -22.0°
Reaches altitude 10° 18:53:04 10° 282° (WNW) 1,468 0.0 -22.4°
Enters shadow 18:55:22 33° 316° (NW) 706 -2.4 -22.8°
